JTC650 KRDU-KOPF

Flight info

Callsign JTC650
Flight time 1h 39m
Altitude 43000
Route HOOKZ5 DAWTS DCT MRPIT Q409 ENEME DCT DOFFY DCT BROMO CUURT1
Aircraft GLF6/M-SDE3FGHIRWY/LB1

Departure

Time 2026-05-04 22:13
Airport Raleigh-Durham International Airport (KRDU)

Arrival

Time 2026-05-04 23:53
Airport Miami-Opa Locka Executive Airport (KOPF)
Time Latitude Longitude Altitude Speed Heading
2026-05-04 22:06 35.88046 -78.78360 428 ft 0 kts 225°
2026-05-04 22:11 35.88040 -78.78363 424 ft 6 kts 206°
2026-05-04 22:11 35.87988 -78.78300 422 ft 13 kts 99°
2026-05-04 22:12 35.87962 -78.78194 426 ft 12 kts 102°
2026-05-04 22:12 35.88002 -78.78131 428 ft 10 kts 43°
2026-05-04 22:12 35.87998 -78.78052 429 ft 11 kts 136°
2026-05-04 22:12 35.87920 -78.77957 428 ft 13 kts 138°
2026-05-04 22:13 35.87884 -78.77980 422 ft 10 kts 225°
2026-05-04 22:13 35.87668 -78.78249 430 ft 82 kts 225°
2026-05-04 22:13 35.87090 -78.78965 433 ft 150 kts 224°
2026-05-04 22:13 35.86284 -78.79939 1072 ft 168 kts 216°
2026-05-04 22:14 35.85174 -78.80561 1990 ft 188 kts 197°
2026-05-04 22:14 35.83749 -78.80938 2448 ft 240 kts 191°
2026-05-04 22:14 35.81957 -78.81289 3301 ft 267 kts 192°
2026-05-04 22:14 35.80144 -78.81739 5062 ft 260 kts 193°
2026-05-04 22:15 35.78393 -78.82172 6281 ft 262 kts 194°
2026-05-04 22:15 35.76531 -78.82566 6867 ft 276 kts 192°
2026-05-04 22:15 35.74641 -78.82950 7835 ft 277 kts 195°
2026-05-04 22:15 35.72726 -78.83431 8612 ft 284 kts 196°
2026-05-04 22:16 35.70763 -78.83882 9485 ft 290 kts 194°
2026-05-04 22:16 35.68755 -78.84305 10325 ft 295 kts 194°
2026-05-04 22:16 35.66718 -78.84759 11137 ft 302 kts 195°
2026-05-04 22:16 35.64564 -78.85249 11466 ft 328 kts 195°
2026-05-04 22:17 35.62223 -78.85781 11711 ft 356 kts 194°
2026-05-04 22:17 35.59732 -78.86321 12393 ft 365 kts 194°
2026-05-04 22:17 35.57216 -78.86852 13338 ft 370 kts 194°
2026-05-04 22:17 35.54658 -78.87413 14148 ft 376 kts 194°
2026-05-04 22:18 35.52073 -78.87996 15011 ft 379 kts 194°
2026-05-04 22:18 35.49470 -78.88582 15866 ft 383 kts 194°
2026-05-04 22:18 35.46831 -78.89166 16718 ft 387 kts 194°
2026-05-04 22:18 35.44164 -78.89737 17561 ft 391 kts 193°
2026-05-04 22:19 35.41445 -78.90190 18367 ft 396 kts 191°
2026-05-04 22:19 35.38701 -78.90634 19112 ft 399 kts 191°
2026-05-04 22:19 35.35939 -78.91098 19850 ft 402 kts 192°
2026-05-04 22:19 35.33155 -78.91572 20576 ft 405 kts 192°
2026-05-04 22:20 35.30347 -78.92034 21295 ft 409 kts 191°
2026-05-04 22:20 35.27482 -78.92228 21955 ft 418 kts 181°
2026-05-04 22:20 35.24572 -78.91844 22656 ft 423 kts 176°
2026-05-04 22:20 35.21635 -78.91347 23243 ft 429 kts 176°
2026-05-04 22:21 35.18665 -78.90864 23850 ft 433 kts 176°
2026-05-04 22:21 35.15674 -78.90365 24414 ft 436 kts 176°
2026-05-04 22:21 35.12655 -78.89853 24957 ft 439 kts 176°
2026-05-04 22:21 35.09616 -78.89349 25504 ft 442 kts 177°
2026-05-04 22:22 35.06556 -78.88847 26088 ft 445 kts 177°
2026-05-04 22:22 35.03472 -78.88331 26628 ft 449 kts 177°
2026-05-04 22:22 35.00362 -78.87914 27128 ft 449 kts 183°
2026-05-04 22:22 34.97256 -78.88068 27655 ft 445 kts 191°
2026-05-04 22:23 34.94227 -78.88742 28241 ft 442 kts 198°
2026-05-04 22:23 34.91215 -78.89603 28760 ft 446 kts 198°
2026-05-04 22:23 34.88177 -78.90438 29323 ft 449 kts 198°
2026-05-04 22:23 34.85124 -78.91291 29867 ft 452 kts 198°
2026-05-04 22:24 34.82046 -78.92165 30368 ft 455 kts 198°
2026-05-04 22:24 34.78950 -78.93034 30875 ft 458 kts 198°
2026-05-04 22:24 34.75838 -78.93899 31385 ft 460 kts 198°
2026-05-04 22:24 34.72713 -78.94774 31855 ft 462 kts 198°
2026-05-04 22:25 34.69565 -78.95656 32313 ft 466 kts 198°
2026-05-04 22:25 34.66400 -78.96539 32821 ft 468 kts 198°
2026-05-04 22:25 34.63214 -78.97427 33316 ft 471 kts 198°
2026-05-04 22:25 34.60014 -78.98321 33807 ft 473 kts 198°
2026-05-04 22:26 34.56796 -78.99216 34254 ft 476 kts 198°
2026-05-04 22:26 34.53557 -79.00118 34639 ft 479 kts 198°
2026-05-04 22:26 34.50292 -79.01027 35015 ft 482 kts 198°
2026-05-04 22:26 34.47028 -79.01991 35325 ft 483 kts 202°
2026-05-04 22:27 34.43889 -79.03402 35676 ft 480 kts 209°
2026-05-04 22:27 34.40924 -79.05243 36036 ft 478 kts 216°
2026-05-04 22:27 34.38168 -79.07476 36363 ft 477 kts 220°
2026-05-04 22:27 34.35456 -79.09813 36676 ft 481 kts 220°
2026-05-04 22:28 34.32709 -79.12146 37028 ft 483 kts 220°
2026-05-04 22:28 34.29958 -79.14495 37354 ft 486 kts 220°
2026-05-04 22:28 34.27198 -79.16868 37683 ft 488 kts 220°
2026-05-04 22:28 34.24507 -79.19371 37939 ft 488 kts 224°
2026-05-04 22:29 34.21928 -79.21952 38329 ft 489 kts 224°
2026-05-04 22:29 34.19275 -79.24546 38619 ft 492 kts 223°
2026-05-04 22:29 34.16630 -79.27126 39307 ft 478 kts 224°
2026-05-04 22:29 34.14132 -79.29583 40820 ft 450 kts 224°
2026-05-04 22:30 34.11724 -79.31964 41471 ft 447 kts 224°
2026-05-04 22:30 34.09311 -79.34352 41632 ft 449 kts 224°
2026-05-04 22:30 34.06891 -79.36721 41955 ft 448 kts 224°
2026-05-04 22:30 34.04472 -79.39087 42233 ft 447 kts 224°
2026-05-04 22:31 34.02061 -79.41456 42484 ft 447 kts 224°
2026-05-04 22:31 33.99647 -79.43823 42731 ft 447 kts 224°
2026-05-04 22:31 33.97235 -79.46183 42962 ft 447 kts 224°
2026-05-04 22:31 33.94818 -79.48549 43072 ft 450 kts 224°
2026-05-04 22:32 33.92376 -79.50939 43066 ft 455 kts 224°
2026-05-04 22:32 33.87414 -79.55783 43087 ft 463 kts 224°
2026-05-04 22:33 33.82277 -79.60605 43078 ft 472 kts 223°
2026-05-04 22:33 33.77163 -79.65378 43039 ft 461 kts 223°
2026-05-04 22:34 33.72107 -79.70094 43062 ft 461 kts 223°
2026-05-04 22:34 33.67032 -79.74813 43061 ft 461 kts 223°
2026-05-04 22:35 33.61962 -79.79524 43059 ft 461 kts 223°
2026-05-04 22:35 33.56875 -79.84243 43065 ft 464 kts 223°
2026-05-04 22:36 33.51767 -79.88972 43072 ft 463 kts 223°
2026-05-04 22:36 33.46730 -79.93629 43075 ft 461 kts 223°
2026-05-04 22:37 33.41620 -79.98348 43087 ft 463 kts 223°
2026-05-04 22:37 33.36519 -80.03048 43090 ft 462 kts 223°
2026-05-04 22:38 33.31419 -80.07743 43092 ft 463 kts 223°
2026-05-04 22:38 33.26319 -80.12450 43098 ft 463 kts 224°
2026-05-04 22:39 33.21193 -80.17134 43102 ft 464 kts 223°
2026-05-04 22:39 33.16065 -80.21836 43075 ft 466 kts 224°
2026-05-04 22:40 33.10902 -80.26555 43079 ft 467 kts 223°
2026-05-04 22:40 33.06621 -80.30466 43076 ft 466 kts 223°
2026-05-04 22:41 33.01466 -80.35172 43089 ft 468 kts 223°
2026-05-04 22:41 32.96299 -80.39876 43096 ft 467 kts 223°
2026-05-04 22:42 32.91132 -80.44577 43093 ft 467 kts 223°
2026-05-04 22:42 32.85960 -80.49274 43088 ft 468 kts 223°
2026-05-04 22:43 32.80784 -80.53969 43095 ft 468 kts 223°
2026-05-04 22:43 32.75606 -80.58656 43090 ft 467 kts 224°
2026-05-04 22:44 32.70451 -80.63318 43084 ft 466 kts 224°
2026-05-04 22:44 32.65365 -80.68083 43097 ft 466 kts 225°
2026-05-04 22:45 32.60258 -80.72823 43100 ft 466 kts 224°
2026-05-04 22:45 32.52606 -80.79938 43115 ft 465 kts 224°
2026-05-04 22:46 32.47526 -80.84637 43096 ft 462 kts 224°
2026-05-04 22:46 32.42451 -80.89341 43094 ft 464 kts 224°
2026-05-04 22:47 32.37362 -80.94041 43095 ft 465 kts 224°
2026-05-04 22:47 32.32288 -80.98725 43085 ft 466 kts 224°
2026-05-04 22:48 32.27028 -81.03228 43094 ft 470 kts 218°
2026-05-04 22:48 32.21333 -81.07040 43097 ft 471 kts 217°
2026-05-04 22:49 32.15624 -81.10877 43099 ft 472 kts 217°
2026-05-04 22:49 32.09912 -81.14684 43097 ft 471 kts 217°
2026-05-04 22:50 32.04203 -81.18500 43069 ft 472 kts 217°
2026-05-04 22:50 31.98514 -81.22298 43059 ft 467 kts 219°
2026-05-04 22:51 31.93421 -81.26816 43062 ft 454 kts 229°
2026-05-04 22:51 31.88705 -81.31807 43068 ft 458 kts 228°
2026-05-04 22:52 31.83948 -81.36823 43079 ft 459 kts 229°
2026-05-04 22:52 31.79198 -81.41830 43075 ft 458 kts 228°
2026-05-04 22:53 31.74455 -81.46820 43074 ft 457 kts 229°
2026-05-04 22:53 31.69726 -81.51791 43069 ft 456 kts 229°
2026-05-04 22:54 31.64991 -81.56761 43072 ft 457 kts 229°
2026-05-04 22:54 31.60249 -81.61728 43081 ft 457 kts 229°
2026-05-04 22:55 31.55508 -81.66690 43081 ft 457 kts 229°
2026-05-04 22:55 31.50749 -81.71663 43100 ft 459 kts 229°
2026-05-04 22:56 31.45970 -81.76647 43096 ft 459 kts 229°
2026-05-04 22:56 31.41192 -81.81610 43088 ft 460 kts 227°
2026-05-04 22:57 31.36044 -81.86172 43087 ft 465 kts 225°
2026-05-04 22:57 31.30897 -81.90746 43082 ft 465 kts 224°
2026-05-04 22:58 31.25728 -81.95268 43051 ft 463 kts 224°
2026-05-04 22:58 31.20573 -81.99808 43066 ft 465 kts 224°
2026-05-04 22:59 31.15396 -82.04340 43072 ft 464 kts 224°
2026-05-04 22:59 31.10231 -82.08867 43069 ft 465 kts 224°
2026-05-04 23:00 31.05048 -82.13397 43125 ft 465 kts 224°
2026-05-04 23:00 30.99873 -82.17916 43097 ft 464 kts 224°
2026-05-04 23:01 30.94697 -82.22432 43148 ft 466 kts 224°
2026-05-04 23:01 30.89541 -82.26921 43158 ft 465 kts 224°
2026-05-04 23:02 30.84362 -82.31425 43166 ft 465 kts 224°
2026-05-04 23:02 30.79170 -82.35934 43170 ft 466 kts 224°
2026-05-04 23:03 30.73723 -82.40092 43149 ft 475 kts 215°
2026-05-04 23:03 30.67489 -82.42947 43155 ft 491 kts 204°
2026-05-04 23:04 30.60622 -82.44221 43151 ft 508 kts 192°
2026-05-04 23:04 30.53567 -82.44660 43154 ft 507 kts 192°
2026-05-04 23:05 30.46506 -82.45118 43174 ft 509 kts 192°
2026-05-04 23:05 30.39442 -82.45562 43158 ft 508 kts 192°
2026-05-04 23:06 30.32383 -82.46015 43157 ft 508 kts 192°
2026-05-04 23:06 30.25316 -82.46462 43138 ft 509 kts 192°
2026-05-04 23:07 30.18251 -82.46910 43099 ft 508 kts 192°
2026-05-04 23:07 30.11205 -82.47356 43110 ft 507 kts 192°
2026-05-04 23:08 30.04153 -82.47802 43092 ft 508 kts 192°
2026-05-04 23:08 29.97104 -82.48248 43088 ft 507 kts 192°
2026-05-04 23:09 29.90054 -82.48692 43064 ft 507 kts 192°
2026-05-04 23:09 29.83012 -82.49135 43054 ft 507 kts 191°
2026-05-04 23:10 29.75961 -82.49579 43053 ft 508 kts 191°
2026-05-04 23:10 29.68908 -82.50021 43049 ft 507 kts 191°
2026-05-04 23:11 29.61864 -82.50463 43055 ft 507 kts 191°
2026-05-04 23:11 29.54817 -82.50905 43050 ft 508 kts 191°
2026-05-04 23:12 29.47749 -82.51345 43050 ft 508 kts 191°
2026-05-04 23:12 29.40697 -82.51786 43040 ft 508 kts 191°
2026-05-04 23:13 29.33635 -82.52227 43039 ft 508 kts 191°
2026-05-04 23:13 29.26578 -82.52667 43037 ft 508 kts 192°
2026-05-04 23:14 29.19628 -82.53679 43044 ft 504 kts 195°
2026-05-04 23:14 29.12673 -82.54707 43042 ft 503 kts 196°
2026-05-04 23:15 29.05737 -82.55802 43039 ft 503 kts 196°
2026-05-04 23:15 28.98793 -82.56854 43024 ft 504 kts 196°
2026-05-04 23:16 28.91831 -82.57932 43032 ft 505 kts 195°
2026-05-04 23:16 28.84879 -82.58993 43028 ft 504 kts 196°
2026-05-04 23:17 28.77917 -82.60062 43036 ft 505 kts 195°
2026-05-04 23:17 28.70956 -82.61125 43031 ft 505 kts 196°
2026-05-04 23:18 28.63968 -82.62194 43037 ft 507 kts 196°
2026-05-04 23:18 28.56986 -82.63257 43034 ft 505 kts 196°
2026-05-04 23:19 28.50003 -82.64322 43033 ft 507 kts 196°
2026-05-04 23:19 28.43018 -82.65382 43035 ft 506 kts 196°
2026-05-04 23:20 28.36018 -82.66449 43033 ft 509 kts 196°
2026-05-04 23:20 28.29015 -82.67508 43031 ft 507 kts 196°
2026-05-04 23:21 28.22020 -82.68571 43026 ft 508 kts 196°
2026-05-04 23:21 28.15013 -82.69629 43024 ft 507 kts 196°
2026-05-04 23:22 28.08001 -82.70691 43020 ft 509 kts 196°
2026-05-04 23:22 28.00896 -82.71324 43018 ft 520 kts 186°
2026-05-04 23:23 27.94849 -82.70508 43014 ft 532 kts 178°
2026-05-04 23:23 27.87541 -82.69069 42787 ft 536 kts 178°
2026-05-04 23:24 27.83855 -82.68346 42494 ft 539 kts 178°
2026-05-04 23:24 27.80163 -82.67608 42218 ft 538 kts 178°
2026-05-04 23:24 27.76476 -82.66876 41958 ft 538 kts 178°
2026-05-04 23:24 27.72788 -82.66158 41699 ft 538 kts 178°
2026-05-04 23:25 27.69096 -82.65435 41453 ft 539 kts 178°
2026-05-04 23:25 27.65478 -82.64718 41211 ft 539 kts 178°
2026-05-04 23:25 27.61787 -82.63991 40967 ft 539 kts 178°
2026-05-04 23:25 27.58094 -82.63269 40725 ft 539 kts 178°
2026-05-04 23:26 27.54394 -82.62544 40490 ft 540 kts 177°
2026-05-04 23:26 27.50712 -82.61593 40239 ft 546 kts 172°
2026-05-04 23:26 27.47050 -82.60481 40011 ft 545 kts 172°
2026-05-04 23:26 27.43372 -82.59419 39794 ft 545 kts 173°
2026-05-04 23:27 27.39693 -82.58363 39552 ft 546 kts 172°
2026-05-04 23:27 27.36021 -82.57274 39321 ft 546 kts 172°
2026-05-04 23:27 27.32344 -82.56178 39095 ft 546 kts 172°
2026-05-04 23:27 27.28672 -82.55108 38870 ft 546 kts 172°
2026-05-04 23:28 27.24990 -82.54041 38595 ft 548 kts 173°
2026-05-04 23:28 27.21286 -82.52954 38328 ft 552 kts 172°
2026-05-04 23:28 27.17565 -82.51858 38067 ft 553 kts 172°
2026-05-04 23:28 27.13849 -82.50771 37804 ft 552 kts 172°
2026-05-04 23:29 27.10174 -82.49702 37536 ft 554 kts 172°
2026-05-04 23:29 27.06408 -82.48608 36781 ft 562 kts 172°
2026-05-04 23:29 27.02623 -82.47478 36043 ft 564 kts 169°
2026-05-04 23:29 26.98935 -82.45941 35302 ft 567 kts 161°
2026-05-04 23:30 26.95425 -82.43907 34547 ft 569 kts 153°
2026-05-04 23:30 26.92156 -82.41412 33807 ft 569 kts 145°
2026-05-04 23:30 26.89199 -82.38508 33297 ft 562 kts 138°
2026-05-04 23:30 26.86602 -82.35265 32765 ft 557 kts 131°
2026-05-04 23:31 26.84384 -82.31739 32231 ft 552 kts 124°
2026-05-04 23:31 26.82336 -82.28130 31721 ft 548 kts 124°
2026-05-04 23:31 26.80273 -82.24543 31189 ft 545 kts 125°
2026-05-04 23:31 26.78235 -82.20984 30677 ft 541 kts 124°
2026-05-04 23:32 26.76224 -82.17445 30160 ft 537 kts 125°
2026-05-04 23:32 26.74218 -82.13934 29603 ft 533 kts 125°
2026-05-04 23:32 26.72204 -82.10477 29083 ft 527 kts 127°
2026-05-04 23:32 26.70151 -82.07101 28580 ft 523 kts 127°
2026-05-04 23:33 26.68131 -82.03734 28077 ft 519 kts 126°
2026-05-04 23:33 26.66132 -82.00392 27579 ft 515 kts 127°
2026-05-04 23:33 26.64132 -81.97086 27066 ft 511 kts 127°
2026-05-04 23:33 26.62174 -81.93857 26608 ft 507 kts 127°
2026-05-04 23:34 26.60205 -81.90594 26122 ft 505 kts 127°
2026-05-04 23:34 26.58249 -81.87351 25646 ft 501 kts 127°
2026-05-04 23:34 26.56302 -81.84138 25169 ft 498 kts 127°
2026-05-04 23:34 26.54370 -81.80951 24713 ft 494 kts 127°
2026-05-04 23:35 26.52452 -81.77783 24244 ft 491 kts 127°
2026-05-04 23:35 26.50546 -81.74641 23775 ft 487 kts 127°
2026-05-04 23:35 26.48654 -81.71523 23265 ft 483 kts 127°
2026-05-04 23:35 26.46745 -81.68470 22793 ft 476 kts 130°
2026-05-04 23:36 26.44775 -81.65527 22328 ft 471 kts 130°
2026-05-04 23:36 26.42835 -81.62606 21879 ft 467 kts 130°
2026-05-04 23:36 26.40924 -81.59698 21439 ft 462 kts 130°
2026-05-04 23:36 26.39024 -81.56828 21008 ft 458 kts 130°
2026-05-04 23:37 26.37130 -81.53986 20580 ft 454 kts 130°
2026-05-04 23:37 26.35257 -81.51165 20172 ft 451 kts 130°
2026-05-04 23:37 26.33401 -81.48367 19773 ft 448 kts 130°
2026-05-04 23:37 26.31554 -81.45589 19380 ft 444 kts 130°
2026-05-04 23:38 26.29719 -81.42831 18980 ft 441 kts 130°
2026-05-04 23:38 26.27896 -81.40092 18601 ft 439 kts 130°
2026-05-04 23:38 26.26083 -81.37371 18226 ft 436 kts 130°
2026-05-04 23:38 26.24284 -81.34668 17806 ft 433 kts 130°
2026-05-04 23:39 26.22494 -81.31984 17387 ft 430 kts 130°
2026-05-04 23:39 26.20718 -81.29323 16979 ft 426 kts 130°
2026-05-04 23:39 26.18957 -81.26686 16579 ft 423 kts 130°
2026-05-04 23:39 26.17201 -81.24062 15951 ft 425 kts 130°
2026-05-04 23:40 26.15438 -81.21425 15199 ft 424 kts 130°
2026-05-04 23:40 26.13682 -81.18797 14464 ft 422 kts 129°
2026-05-04 23:40 26.11975 -81.16243 13680 ft 394 kts 129°
2026-05-04 23:40 26.10412 -81.13898 12807 ft 363 kts 129°
2026-05-04 23:41 26.08948 -81.11720 11959 ft 340 kts 130°
2026-05-04 23:41 26.07591 -81.09700 11156 ft 322 kts 130°
2026-05-04 23:41 26.06267 -81.07729 10379 ft 315 kts 130°
2026-05-04 23:41 26.04973 -81.05802 9610 ft 305 kts 130°
2026-05-04 23:42 26.03736 -81.03954 8782 ft 292 kts 129°
2026-05-04 23:42 26.02530 -81.02163 7982 ft 287 kts 129°
2026-05-04 23:42 26.01358 -81.00383 7205 ft 283 kts 125°
2026-05-04 23:42 26.00544 -80.98402 6434 ft 281 kts 111°
2026-05-04 23:43 25.99865 -80.96378 6011 ft 279 kts 114°
2026-05-04 23:43 25.99123 -80.94348 6008 ft 285 kts 113°
2026-05-04 23:43 25.98409 -80.92292 6002 ft 284 kts 112°
2026-05-04 23:43 25.97729 -80.90237 5981 ft 283 kts 108°
2026-05-04 23:44 25.97335 -80.88103 5969 ft 282 kts 98°
2026-05-04 23:44 25.97074 -80.85916 5674 ft 287 kts 99°
2026-05-04 23:44 25.96718 -80.83761 5537 ft 282 kts 103°
2026-05-04 23:44 25.96242 -80.81638 5414 ft 285 kts 108°
2026-05-04 23:45 25.95647 -80.79540 5283 ft 285 kts 104°
2026-05-04 23:45 25.95330 -80.77381 5163 ft 282 kts 97°
2026-05-04 23:45 25.95071 -80.75220 5040 ft 282 kts 100°
2026-05-04 23:45 25.94696 -80.73117 4913 ft 273 kts 103°
2026-05-04 23:46 25.94307 -80.71057 4785 ft 272 kts 102°
2026-05-04 23:46 25.93956 -80.69004 4661 ft 269 kts 101°
2026-05-04 23:46 25.93609 -80.66971 4522 ft 267 kts 101°
2026-05-04 23:46 25.93258 -80.64952 4424 ft 265 kts 101°
2026-05-04 23:47 25.92907 -80.62931 4148 ft 266 kts 101°
2026-05-04 23:47 25.92558 -80.60930 3809 ft 262 kts 100°
2026-05-04 23:47 25.92215 -80.58948 3466 ft 260 kts 100°
2026-05-04 23:47 25.91872 -80.56991 3126 ft 257 kts 100°
2026-05-04 23:48 25.91535 -80.55048 2772 ft 255 kts 99°
2026-05-04 23:48 25.91201 -80.53130 2438 ft 252 kts 100°
2026-05-04 23:48 25.90869 -80.51229 2105 ft 249 kts 99°
2026-05-04 23:48 25.90539 -80.49347 1775 ft 247 kts 98°
2026-05-04 23:49 25.90347 -80.47483 1570 ft 236 kts 86°
2026-05-04 23:49 25.90461 -80.45749 1595 ft 216 kts 85°
2026-05-04 23:49 25.90524 -80.44139 1571 ft 201 kts 85°
2026-05-04 23:49 25.90594 -80.42645 1562 ft 185 kts 84°
2026-05-04 23:50 25.90669 -80.41280 1562 ft 169 kts 86°
2026-05-04 23:50 25.90722 -80.39996 1587 ft 165 kts 83°
2026-05-04 23:50 25.90794 -80.38734 1599 ft 163 kts 86°
2026-05-04 23:50 25.90842 -80.37461 1508 ft 169 kts 85°
2026-05-04 23:51 25.90920 -80.36156 1315 ft 163 kts 84°
2026-05-04 23:51 25.90960 -80.34993 1084 ft 139 kts 84°
2026-05-04 23:51 25.91019 -80.34013 899 ft 117 kts 85°
2026-05-04 23:51 25.91060 -80.33104 642 ft 120 kts 85°
2026-05-04 23:52 25.91104 -80.32189 534 ft 122 kts 86°
2026-05-04 23:52 25.91155 -80.31249 420 ft 121 kts 85°
2026-05-04 23:52 25.91192 -80.30319 285 ft 119 kts 87°
2026-05-04 23:52 25.91237 -80.29445 142 ft 109 kts 84°
2026-05-04 23:53 25.91274 -80.28615 22 ft 104 kts 85°
2026-05-04 23:53 25.91310 -80.27943 10 ft 63 kts 86°
2026-05-04 23:53 25.91321 -80.27696 11 ft 12 kts 97°
2026-05-04 23:53 25.91270 -80.27649 14 ft 9 kts 175°
2026-05-04 23:54 25.91229 -80.27647 13 ft 0 kts 178°
2026-05-04 23:54 25.91226 -80.27647 13 ft 2 kts 178°
2026-05-04 23:54 25.91188 -80.27603 13 ft 13 kts 100°
2026-05-04 23:55 25.91194 -80.27494 14 ft 17 kts 86°
2026-05-04 23:55 25.91174 -80.27400 15 ft 11 kts 140°
2026-05-04 23:55 25.91153 -80.27205 18 ft 19 kts 86°
2026-05-04 23:56 25.91159 -80.27062 16 ft 15 kts 89°
2026-05-04 23:56 25.91107 -80.27018 16 ft 14 kts 174°
2026-05-04 23:56 25.91050 -80.27060 16 ft 11 kts 263°
2026-05-04 23:56 25.91055 -80.27128 17 ft 5 kts 312°
2026-05-04 23:57 25.91059 -80.27134 16 ft 1 kts 300°